Showing default

FLYING LAPTOP, 42831

Orbit data source: Space-Track

FLYING LAPTOP, 42831 is a payload satellite owned by IRS Stuttgart (DE) in SSO that was launched on Fri, 14 Jul 2017 UTC via a SOYUZ-2-1A launch vehicle from the Tyuratam Missile And Space Complex (TTMTR). Payload-class satellites include a variety of spacecraft equipped with specific instruments for various scientific and technological missions. These include communications satellites like Starlink; space stations such as the ISS; scientific satellites like the Hubble; Earth observation satellites from companies like Planet Labs, Umbra, and HawkEye 360; GPS; miniature CubeSats for education and research; and military/defense satellites.

Loading next visibility...
Identifier
42831, 2017-042G
Orbit
SSO
Country
Flag of DEDE / GER
Related business
Manufacturer
IRS Stuttgart
Mission
Operational Amateur Technology
Bus & Motor
FLP, Unknown motor
Mass
120 kg wet, 120 kg dry
Launch date (UTC)
2017-07-14 (8 years ago)
Launch vehicle
SOYUZ-2-1A
Launch site
Tyuratam Missile And Space Complex (TTMTR)
Object type
Payload
Rocket body
Debris
Shape & HBR
Box + 2 Pan, 1.1 m
Radar Cross Section
0.788 m², Medium (>0.1 m² and < 1m²)

Expand to show TLE details & history
Last TLE update: 8 hours ago

TLE from 8 hours ago
0 FLYING LAPTOP
1 42831U 17042G   25295.95893003  .00003062  00000-0  25398-3 0  9993
2 42831  97.4207  96.9520 0010435 212.4215 147.6369 14.99462488450886
Epoch: 2025-10-22T23:00Z
TLE epoch observation values (Epoch: 2025-10-22T23:00:51.554Z)
Latitude
-0.00002°
Longitude
80.11213°
Altitude
577.744 km
Speed
7.568 km/s
True Right ascension
06h 27m 48s
True Declination
0° 00' 00"
Sunlit
Object was in daylight at epoch
Visualization orbit readout
Latitude
Unknown
Longitude
Unknown
Altitude
Unknown
Speed
Unknown
Apparent Right ascension
Unknown
Apparent Declination
Unknown
Sunlit
N/A
Visualization observer readout
Local Sidereal Time
02:00:38
Azimuth
Unknown
Elevation
Unknown
Doppler factor
Unknown
Orbital elements
Apogee altitude
572.796 km
Perigee altitude
558.304 km
Semi-major axis
6,943.687 km
Eccentricity
0.00104
Inclination
97.4207°
RAAN
96.952°
Arg. of periapsis
212.4215°
True anomaly
147.70084°
Mean anomaly
147.6369°
Eccentric anomaly
147.66888°
Mean motion
3.75109 °/min
Orbital period
95.97 mins
BSTAR
0.00025398
Loading maneuver chart data...
Computing Atmospheric mass density...

Documentation

Showing up to 5 results
|